Weather History for Russell, KS

Change the Weather History Date:

Thursday, October 13, 2011

  Actual Average Record
Temperature  
Mean Temperature 59 °F -  
Max Temperature 75 °F 72 °F 90 °F (1975)
Min Temperature 43 °F 45 °F 30 °F (1969)
Degree Days  
Heating Degree Days 6    
Growing Degree Days 9 (Base 50)    
Moisture  
Dew Point 36 °F    
Average Humidity 50    
Maximum Humidity 82    
Minimum Humidity 20    
Precipitation  
Precipitation 0.00 in - - ()
Sea Level Pressure  
Sea Level Pressure 29.92 in    
Wind  
Wind Speed 11 mph (West)    
Max Wind Speed 21 mph    
Max Gust Speed 31 mph    
Visibility 10 miles    
Events      
Averages and records for this station are not official NWS values.
T = Trace of Precipitation, MM = Missing Value Source: NWS Daily Summary

Daily Weather History Graph

Daily Weather History Graph

Search for Another Location

Airport:

Trip Planner

Search our weather history database for the weather conditions in past years. The results will help you decide how hot, cold, wet, or windy it might be!

Date:

Astronomy

Oct. 13, 2011 Rise Set
Actual Time 7:42 AM CDT 6:59 PM CDT
Civil Twilight 7:15 AM CDT 7:26 PM CDT
Nautical Twilight 6:44 AM CDT 7:57 PM CDT
Astronomical Twilight 6:13 AM CDT 8:28 PM CDT
Moon 7:38 PM CDT (10/13) 9:14 AM CDT (10/13)
Length of Visible Light 12h 11m
Length of Day
11h 17m
Full, 98% of the Moon is Illuminated
Oct 13
Full
Oct 19
Last Quarter
Oct 26
New
Nov 2
First Quarter
Nov 10
Full

Hourly Weather History & Observations

Time (CDT) Temp. Windchill Dew Point Humidity Pressure Visibility Wind Dir Wind Speed Gust Speed Precip Events Conditions
12:53 AM 50.0 °F - 39.0 °F 66% 29.94 in 10.0 mi NW 11.5 mph - N/A   Clear
1:53 AM 46.0 °F 42.5 °F 39.0 °F 76% 29.94 in 10.0 mi NW 6.9 mph - N/A   Clear
2:53 AM 46.9 °F - 37.9 °F 71% 29.95 in 10.0 mi West 6.9 mph - N/A   Clear
3:53 AM 44.1 °F 37.7 °F 39.0 °F 82% 29.96 in 10.0 mi West 12.7 mph - N/A   Clear
4:53 AM 45.0 °F 40.1 °F 37.0 °F 74% 29.96 in 10.0 mi WNW 9.2 mph - N/A   Clear
5:53 AM 44.1 °F 39.0 °F 37.0 °F 76% 29.97 in 10.0 mi West 9.2 mph - N/A   Clear
6:53 AM 45.0 °F 39.7 °F 36.0 °F 71% 29.98 in 10.0 mi West 10.4 mph - N/A   Clear
7:53 AM 43.0 °F 38.2 °F 36.0 °F 76% 29.99 in 10.0 mi WNW 8.1 mph - N/A   Clear
8:53 AM 50.0 °F - 37.9 °F 63% 30.00 in 10.0 mi WNW 8.1 mph - N/A   Clear
9:53 AM 57.9 °F - 37.0 °F 46% 30.00 in 10.0 mi WNW 12.7 mph 24.2 mph N/A   Clear
10:53 AM 64.0 °F - 36.0 °F 35% 30.01 in 10.0 mi WNW 12.7 mph 20.7 mph N/A   Clear
11:53 AM 69.1 °F - 33.1 °F 26% 29.99 in 10.0 mi WNW 15.0 mph 20.7 mph N/A   Clear
12:53 PM 71.1 °F - 34.0 °F 26% 29.96 in 10.0 mi West 20.7 mph 31.1 mph N/A   Clear
1:53 PM 73.0 °F - 30.0 °F 20% 29.92 in 10.0 mi WNW 16.1 mph 25.3 mph N/A   Clear
2:53 PM 73.0 °F - 30.0 °F 20% 29.88 in 10.0 mi West 15.0 mph - N/A   Clear
3:53 PM 73.9 °F - 30.0 °F 20% 29.87 in 10.0 mi West 15.0 mph - N/A   Clear
4:53 PM 75.0 °F - 30.9 °F 20% 29.85 in 10.0 mi West 15.0 mph - N/A   Clear
5:53 PM 73.9 °F - 33.1 °F 22% 29.84 in 10.0 mi West 15.0 mph - N/A   Clear
6:53 PM 69.1 °F - 35.1 °F 29% 29.85 in 10.0 mi West 9.2 mph - N/A   Clear
7:53 PM 59.0 °F - 41.0 °F 51% 29.86 in 10.0 mi SW 10.4 mph - N/A   Clear
8:53 PM 57.9 °F - 39.0 °F 49% 29.86 in 10.0 mi SW 8.1 mph - N/A   Clear
9:53 PM 55.0 °F - 39.9 °F 57% 29.86 in 10.0 mi SW 8.1 mph - N/A   Clear
10:53 PM 53.1 °F - 39.0 °F 59% 29.86 in 10.0 mi SW 12.7 mph - N/A   Clear
11:53 PM 52.0 °F - 39.9 °F 63% 29.88 in 10.0 mi NW 6.9 mph 18.4 mph N/A   Clear